Погода в Шымкенте

Погода в Шымкенте : погода сейчас, прогноз погоды и архив. Всё, что Вы хотите узнать о погоде в Шымкенте!

Поиск расширенной информации на нашем сайте:

Другие новости

Новости СМИ2

Главная страница сайта

Новости сайта

02.10.2013

Напоминаем, что на нашем новом сайте вы можете получить высокодетализированные прогнозы погоды по пунктам России, СНГ и мира (включающие важные для авиации метеовеличины, такие как направление и скорость ветра, видимость, явления погоды, количество и форма облачности, нижняя и верхняя граница облачности), а также ознакомиться с разнообразными материалами по авиационной метеорологии и подборкой полезных ссылок на эту тему.

Сайт Метеоцентр.Азия посвящён разработке технологий оптимизации авиаметеорологического обслуживания, включая проектирование и перспективное создание нескольких автоматизированных авиаметеорологических систем:
- система выпуска высокодетальных прогностических карт явлений погоды для нижнего воздушного пространства по России и ближнему зарубежью;
- система верификации прогнозов TAF (выпускаемых синоптиками официальных АМСГ РФ и ближнего зарубежья) и AUTOTAF (выпускаемых сайтом Метеоцентр.Азия) - выявление ошибок, онлайн-сопоставление с фактической погодой METAR, автоматическое внесение коррективов в прогнозы при резком отклонении фактической погоды от прогноза, подсчёт оправдываемости прогнозов по элементам и в целом;
- система обработки, анализа и отображения авиаметеорологической информации для применения провайдерами метеорологической информации.


Погода в Шымкенте - сегодня

Время (UTC), дата Ветер
(°,м/с) 
Видим.   Явления Облачность Т
(°С)
Тd
(°С)
f(%) Тe
(°С)
Pmin
(гПа)
dP
(гПа)
Po
(мм)
O2
(г/м3)
Тmin Tmax R s Состояние
почвы
18 22.05.17 150 (ЮВ) н/о    8/0 средняя, верхняя 
[Ac trans|Ci ing]
+24.2 +9.8 40 +26  1004.1  0.7  703  258    +32       
21 22.05.17 200 (Ю) н/о    8/4 600 м средняя, верхняя 
[Sc|Ac trans|Ci ing]
+23.2 +9.8 43 +25  1005.5  1.1  704  260           
00 23.05.17 180 (Ю) 20000 м    10/8 600 м средняя 
[Sc|Ac trans]
+22.4 +11.8 51 +27  1007.9  2.1  706  260           
03 23.05.17 290 (З) 20000 м    10/10 600 м кучево-дожд. 
[Cb cap]
+21.5 +13.3 60 +29  1012.6  4.2  709  262           
06 23.05.17 150 (ЮВ) 20000 м  в посл. час ливневой дождь  9/9 600 м кучево-дожд. 
[Cb cap]
+20.3 +16.1 77 +33  1013.4  0.6  709  262  +21.5         
09 23.05.17 320 (СЗ) 20000 м    8/3 600 м кучево-дожд., средняя, верхняя 
[Cb cap|Ac trans|Ci fib]
+25.8 +15.4 53 +37  1011.5  -0.6  709  258           
12 23.05.17 280 (З) 20000 м    3/3 600 м 
[Cu med, cong]
+27.7 +14.4 44 +37  1011.4  0.3  709  256           
15 23.05.17 110 (В) 20000 м    ясно 
+23.5 +16.7 66 +37  1012.6  0.3  709  259    +28.8  0.1     
18 23.05.17 120 (ЮВ) н/о    ясно 
+20 +15.4 75 +31  1013.1  -0.3  709  263    +28.8  0.1     
21 23.05.17 120 (ЮВ) н/о    ясно 
+17.9 +11.9 68 +24  1012.9  -0.8  708  265           
00 24.05.17 120 (ЮВ) 20000 м    ясно 
+17 +10.3 65 +21  1013.1  708  267           
03 24.05.17 090 (В) 20000 м    1/0 верхняя 
[Ci fib]
+22.8 +12.3 52 +28  1012.1  0.3  709  261           
06 24.05.17 030 (СВ) 20000 м    ясно 
+29.6 +15.3 42 +40  1010.3  -0.1  708  254  +17         
09 24.05.17 040 (СВ) 20000 м    8/0 средняя, верхняя 
[Ac trans|Ci ing]
+29.8 +12.3 34 +35  1009.3  -1  708  255           
12 24.05.17 070 (В) 20000 м    8/3 600 м средняя, верхняя 
[Sc|Ac trans|Ci ing]
+28.1 +16.5 49 +41  1008.5  -1  707  255           
15 24.05.17 110 (В) 20000 м    6/0 средняя, верхняя 
[Ac trans|Ci fib]
+24 +16.4 62 +37  1008.7  -0.6  707  258    +30.6       
18 24.05.17 100 (В) н/о    ясно 
+20.4 +13.2 63 +28  1009.9  -0.2  707  262    +30.6       
21 24.05.17 100 (В) н/о    ясно 
+18.2 +9.9 58 +21  1010.1  -0.4  706  265           
00 25.05.17 120 (ЮВ) 20000 м    3/3 600 м 
[Cu hum]
+18.1 +8.6 54 +20  1009.7  -0.4  706  265           
03 25.05.17 140 (ЮВ) 20000 м    3/3 600 м 
[Cu hum]
+24.6 +14.5 53 +34  1008.3  0.2  706  258           
06 25.05.17 030 (СВ) 20000 м    3/1 600 м верхняя 
[Cu med, cong|Ci ing]
+30 +13.2 36 +37  1007.9  0.8  707  254  +17.5         
09 25.05.17 040 (СВ) 20000 м    4/1 600 м верхняя 
[Cu med, cong|Ci ing]
+30.4 +11.3 31 +35  1007.9  707  254           
12 25.05.17 330 (СЗ) 20000 м    10/1 600 м средняя, верхняя 
[Cu med, cong|Ac trans|Ci ing]
+29.6 +13.1 36 +37  1008  707  254           
15 25.05.17 350 (С) 20000 м    8/0 средняя, верхняя 
[Ac trans|Ci ing]
+25.4 +14.5 51 +35  1009.5  0.5  707  258    +30.8       
18 25.05.17 080 (В) н/о  зарница  6/4 600 м кучево-дожд., средняя 
[Cb cap|Ac trans]
+21.6 +10 48 +24  1011.5  0.9  708  262    +30.8       
Время (UTC), дата Ветер
(°,м/с) 
Видим.   Явления Облачность Т
(°С)
Тd
(°С)
f(%) Тe
(°С)
Pmin
(гПа)
dP
(гПа)
Po
(мм)
O2
(г/м3)
Тmin Tmax R s Состояние
почвы

Для получения пояснительной информации подведите курсор к названию столбца.

ПОГОДА в Шымкенте - архив

Всё, что Вы хотите узнать о погоде в Шымкенте - удобно и подробно!

Выберите нужную дату (начиная с 1 января 2015* года) и нажмите кнопку "Найти".
Будут отображены архивные сводки погоды по пункту Шымкент, начиная с указанной даты.


Отображать данные в формате CSV (для использования в таблицах Excel)


Внимание! Наш архив погоды предназначен исключительно для личного некоммерческого использования в познавательных целях. Если Вам необходимы официальные справки о состоянии погоды (для производственных, юридических, коммерческих и т.п. целей), обращайтесь в органы Росгидромета.

*Примечание: данная дата относится к архиву по метеостанциям СССР (Россия, СНГ, Балтия).
Архив по метеостанциям Зарубежной Европы и Азии (кроме Китая) хранится 10 дней, по другим регионам земного шара (Китай, Африка, Америка, Австралия, Океания) - 1 день.

Шымкент - район местоположения метеостанции


Название, широта, долгота, высота метеостанции:
Шымкент (город) 42.3°ш. 69.7°д. 604 м над ур. моря [Казахстан]

Дополнительная информация

В oтличие oт бoльшинства пoгoдных сайтoв мы публикуем пoдрoбную метеoинфoрмацию в детальнoм прoфессиoнальнoм фoрмате.

Характеристики температуры и влажнoсти вoздуха измеряются на высoте 2 м в тени вдали oт зданий и деревьев.
Скoрoсть ветра измеряется на высoте 10 м (на урoвне рoста челoвека скoрoсть ветра ниже в 1.5-2 раза). Если метеoстанция нахoдится в гoрoде или в лесу, тo скoрoсть ветра занижена на 2-4 м/с пo сравнению с oткрытым местoм. Скoрoсть ветра над акватoриями крупных рек и oзёр, а также на вершинах хoлмoв на 2-5 м/с выше, чем в oбычных услoвиях.
Атмoсфернoе давление в разных тoчках местнoсти мoжет значительнo oтличаться oт давления на метеoстанции, в зависимoсти oт услoвий рельефа (при пoдъёме на 10 м давление пoнижается примернo на 1 мм рт.ст.).